Location: Degersen
(52.2871°N, 9.5716°E)
Time: 01:08:57
(UTC+00:00)

Cosmos 540 Rocket - Pass Details

Date: 20 January 2026
Orbit: 736 x 747 km, 74.1° (Epoch: 18 February)

Event Time Altitude Azimuth Distance (km) Brightness Sun altitude
Exits shadow 04:52:34 30° 335° (NNW) 1,305 4.4 -21.8°
Maximum altitude 04:55:08 89° 254° (WSW) 745 3.3 -21.5°
Drops below altitude 10° 05:00:13 10° 157° (SSE) 2,242 6.3 -20.7°
Sets 05:02:34 0° 157° (SSE) 3,162 7.1 -20.3°
